Weather History for Keahole Point, HI

Change the Weather History Date:

Friday, December 30, 2011

  Actual Average Record
Temperature  
Mean Temperature 74 °F -  
Max Temperature 80 °F 79 °F 88 °F (1983)
Min Temperature 69 °F 67 °F 61 °F (1990)
Cooling Degree Days 10    
Growing Degree Days 24 (Base 50)    
Moisture  
Dew Point 58 °F    
Average Humidity 57    
Maximum Humidity 68    
Minimum Humidity 51    
Precipitation  
Precipitation 0.00 in - - ()
Sea Level Pressure  
Sea Level Pressure 30.03 in    
Wind  
Wind Speed 6 mph (NNE)    
Max Wind Speed 9 mph    
Max Gust Speed -    
Visibility 10 miles    
Events      
Averages and records for this station are not official NWS values.
T = Trace of Precipitation, MM = Missing Value Source: NWS Daily Summary

Daily Weather History Graph

Daily Weather History Graph

Search for Another Location

Airport:

Trip Planner

Search our weather history database for the weather conditions in past years. The results will help you decide how hot, cold, wet, or windy it might be!

Date:

Astronomy

Dec. 30, 2011 Rise Set
Actual Time 6:58 AM HST 5:55 PM HST
Civil Twilight 6:34 AM HST 6:19 PM HST
Nautical Twilight 6:06 AM HST 6:46 PM HST
Astronomical Twilight 5:39 AM HST 7:13 PM HST
Moon 11:14 AM HST (12/30) 11:44 PM HST (12/30)
Length of Visible Light 11h 45m
Length of Day
10h 57m
Waxing Crescent, 37% of the Moon is Illuminated
Dec 30
Waxing Crescent
Dec 31
First Quarter
Jan 8
Full
Jan 15
Last Quarter
Jan 22
New

Hourly Weather History & Observations

Time (HST) Temp. Heat Index Dew Point Humidity Pressure Visibility Wind Dir Wind Speed Gust Speed Precip Events Conditions
12:53 AM 70.0 °F - 57.9 °F 65% 30.02 in 10.0 mi ENE 3.5 mph - N/A   Partly Cloudy
1:53 AM 69.1 °F - 57.9 °F 68% 30.00 in 10.0 mi ENE 4.6 mph - N/A   Mostly Cloudy
2:53 AM 70.0 °F - 57.9 °F 65% 29.99 in 10.0 mi Calm Calm - N/A   Partly Cloudy
3:53 AM 69.1 °F - 55.9 °F 63% 30.00 in 10.0 mi ENE 3.5 mph - N/A   Scattered Clouds
4:53 AM 69.1 °F - 55.0 °F 61% 30.01 in 10.0 mi East 5.8 mph - N/A   Clear
5:53 AM 69.1 °F - 55.0 °F 61% 30.01 in 10.0 mi ESE 5.8 mph - N/A   Clear
6:53 AM 69.1 °F - 55.0 °F 61% 30.03 in 10.0 mi SE 8.1 mph - N/A   Clear
7:53 AM 72.0 °F - 57.0 °F 59% 30.05 in 10.0 mi SE 8.1 mph - N/A   Clear
8:53 AM 75.9 °F - 60.1 °F 58% 30.07 in 10.0 mi SSE 8.1 mph - N/A   Clear
9:53 AM 77.0 °F - 62.1 °F 60% 30.09 in 10.0 mi South 9.2 mph - N/A   Clear
10:53 AM 78.1 °F - 62.1 °F 58% 30.08 in 10.0 mi WSW 6.9 mph - N/A   Clear
11:53 AM 80.1 °F 81.1 °F 61.0 °F 52% 30.06 in 10.0 mi WSW 9.2 mph - N/A   Clear
12:53 PM 79.0 °F - 62.1 °F 56% 30.03 in 10.0 mi West 9.2 mph - N/A   Clear
1:53 PM 80.1 °F 81.1 °F 61.0 °F 52% 30.01 in 10.0 mi West 8.1 mph - N/A   Clear
2:53 PM 79.0 °F - 61.0 °F 54% 30.00 in 10.0 mi WNW 8.1 mph - N/A   Clear
3:53 PM 79.0 °F - 62.1 °F 56% 30.00 in 10.0 mi NNW 9.2 mph - N/A   Clear
4:53 PM 78.1 °F - 62.1 °F 58% 30.01 in 10.0 mi NNW 8.1 mph - N/A   Partly Cloudy
5:53 PM 77.0 °F - 57.9 °F 52% 30.03 in 10.0 mi NNW 6.9 mph - N/A   Overcast
6:53 PM 77.0 °F - 59.0 °F 54% 30.04 in 10.0 mi NW 6.9 mph - N/A   Overcast
7:53 PM 75.9 °F - 59.0 °F 56% 30.05 in 10.0 mi NNW 5.8 mph - N/A   Overcast
8:53 PM 75.9 °F - 57.0 °F 52% 30.05 in 10.0 mi North 5.8 mph - N/A   Mostly Cloudy
9:53 PM 73.9 °F - 55.0 °F 52% 30.04 in 10.0 mi NNE 5.8 mph - N/A   Clear
10:53 PM 73.0 °F - 54.0 °F 51% 30.02 in 10.0 mi Calm Calm - N/A   Clear
11:53 PM 71.1 °F - 54.0 °F 55% 30.01 in 10.0 mi SE 4.6 mph - N/A   Clear